QPF
0.00 0.00 0.00 0.00 0.00 0.00 0.00 0.00 0.00 0.00 0.00 0.00 0.00 0.00 0.00 0.00 0.01 0.00 0.00 0.00 0.00 0.00 0.02 0.09 0.04 0.02 0.01 0.01 0.00 0.00 0.00 0.00 0.00 0.00 0.00 0.00 0.00 0.00 0.00 0.00 0.00 0.00 0.00 0.00 0.00 0.00 0.00 0.00 0.00
0.00 0.00 0.00 0.00 0.00 0.00 0.00 0.00 0.00 0.00 0.00 0.00 0.00 0.00 0.00 0.01 0.00 0.00 0.01 0.00 0.00 0.00 0.01 0.01 0.06 0.02 0.00 0.01 0.00 0.00 0.00 0.00 0.00 0.00 0.00 0.01 0.00 0.01 0.01 0.00 0.00 0.00 0.00 0.01 0.00 0.00 0.00 0.00 0.00
0.00 0.00 0.00 0.00 0.00 0.00 0.00 0.01 0.01 0.00 0.00 0.00 0.00 0.00 0.00 0.00 0.00 0.00 0.00 0.00 0.00 0.00 0.00 0.01 0.05 0.01 0.00 0.00 0.00 0.00 0.00 0.00 0.00 0.00 0.00 0.00 0.00 0.00 0.00 0.00 0.00 0.00 0.00 0.00 0.00 0.00 0.00 0.00 0.00
0.00 0.00 0.00 0.00 0.00 0.00 0.00 0.00 0.00 0.00 0.00 0.00 0.00 0.00 0.00 0.00 0.00 0.00 0.00 0.00 0.00 0.00 0.00 0.00 0.01 0.00 0.00 0.00 0.00 0.00 0.00 0.00 0.00 0.00 0.00 0.00 0.00 0.00 0.00 0.00 0.00 0.00 0.00 0.00 0.00 0.00 0.00 0.00 0.00
0.00 0.00 0.00 0.00 0.00 0.00 0.00 0.00 0.00 0.00 0.00 0.00 0.00 0.00 0.00 0.00 0.00 0.00 0.00 0.00 0.00 0.00 0.00 0.00 0.00 0.00 0.00 0.00 0.00 0.00 0.01 0.00 0.00 0.01 0.01 0.00 0.01 0.00 0.00 0.00 0.00 0.00 0.00 0.00 0.00 0.00 0.00 0.00 0.00
0.00 0.00 0.00 0.00 0.00 0.00 0.00 0.00 0.00 0.00 0.00 0.00 0.00 0.00 0.00 0.01 0.00 0.00 0.00 0.00 0.00 0.00 0.00 0.00 0.00 0.00 0.00 0.00 0.01 0.00 0.00 0.01 0.02 0.04 0.04 0.03 0.02 0.00 0.00 0.00 0.00 0.00 0.00 0.00 0.00 0.00 0.00 0.00 0.00
0.00 0.00 0.00 0.00 0.00 0.00 0.00 0.00 0.00 0.00 0.00 0.00 0.00 0.00 0.01 0.02 0.00 0.00 0.00 0.00 0.00 0.00 0.00 0.00 0.00 0.00 0.00 0.01 0.01 0.00 0.00 0.00 0.01 0.05 0.14 0.11 0.02 0.00 0.00 0.00 0.00 0.00 0.00 0.00 0.00 0.00 0.00 0.00 0.00
0.00 0.00 0.00 0.00 0.00 0.00 0.00 0.00 0.00 0.00 0.00 0.00 0.00 0.00 0.00 0.00 0.00 0.00 0.00 0.00 0.00 0.00 0.00 0.00 0.00 0.00 0.01 0.02 0.00 0.00 0.01 0.04 0.08 0.08 0.08 0.19 0.18 0.10 0.01 0.03 0.04 0.01 0.00 0.00 0.00 0.00 0.00 0.00 0.00
0.00 0.00 0.00 0.00 0.00 0.00 0.00 0.00 0.00 0.00 0.00 0.00 0.00 0.00 0.00 0.00 0.00 0.00 0.00 0.01 0.00 0.00 0.00 0.00 0.00 0.00 0.00 0.00 0.00 0.00 0.02 0.09 0.16 0.16 0.16 0.15 0.12 0.05 0.02 0.04 0.04 0.03 0.01 0.00 0.00 0.00 0.00 0.00 0.00
0.00 0.00 0.00 0.00 0.00 0.00 0.00 0.00 0.00 0.00 0.00 0.00 0.00 0.00 0.00 0.00 0.00 0.00 0.00 0.00 0.00 0.00 0.00 0.00 0.00 0.00 0.00 0.00 0.00 0.01 0.04 0.05 0.14 0.12 0.18 0.16 0.07 0.00 0.00 0.04 0.01 0.00 0.00 0.00 0.00 0.00 0.00 0.00 0.00
0.00 0.00 0.00 0.00 0.00 0.00 0.00 0.00 0.00 0.00 0.00 0.00 0.00 0.00 0.00 0.00 0.00 0.00 0.00 0.00 0.00 0.00 0.00 0.00 0.00 0.00 0.00 0.00 0.00 0.02 0.00 0.07 0.03 0.08 0.08 0.04 0.02 0.01 0.00 0.00 0.02 0.01 0.01 0.04 0.00 0.00 0.00 0.00 0.00
0.00 0.00 0.00 0.00 0.00 0.00 0.00 0.00 0.00 0.00 0.00 0.00 0.00 0.00 0.00 0.00 0.00 0.00 0.00 0.00 0.00 0.00 0.00 0.00 0.00 0.00 0.00 0.00 0.00 0.03 0.09 0.16 0.01 0.13 0.14 0.05 0.00 0.00 0.00 0.00 0.00 0.00 0.00 0.06 0.03 0.00 0.00 0.00 0.00
0.00 0.00 0.00 0.00 0.00 0.00 0.00 0.00 0.00 0.00 0.00 0.00 0.00 0.00 0.00 0.00 0.00 0.00 0.00 0.00 0.00 0.00 0.00 0.00 0.00 0.00 0.00 0.00 0.00 0.01 0.27 0.24 0.13 0.14 0.12 0.07 0.05 0.02 0.03 0.00 0.00 0.00 0.00 0.00 0.00 0.00 0.00 0.00 0.00
0.00 0.00 0.00 0.00 0.00 0.00 0.00 0.00 0.00 0.00 0.00 0.00 0.00 0.00 0.00 0.00 0.00 0.00 0.00 0.00 0.00 0.00 0.00 0.00 0.00 0.00 0.00 0.00 0.00 0.00 0.11 0.19 0.21 0.18 0.17 0.10 0.05 0.07 0.06 0.03 0.01 0.00 0.00 0.00 0.00 0.00 0.00 0.00 0.00
0.00 0.00 0.00 0.00 0.00 0.00 0.00 0.00 0.00 0.00 0.00 0.00 0.00 0.00 0.00 0.00 0.00 0.00 0.00 0.00 0.00 0.00 0.01 0.00 0.00 0.00 0.00 0.00 0.00 0.01 0.21 0.17 0.14 0.18 0.11 0.05 0.00 0.01 0.02 0.02 0.04 0.04 0.00 0.00 0.00 0.00 0.00 0.00 0.00
0.00 0.00 0.00 0.00 0.00 0.00 0.00 0.00 0.00 0.00 0.00 0.00 0.00 0.00 0.00 0.00 0.00 0.00 0.00 0.00 0.00 0.00 0.00 0.00 0.00 0.00 0.00 0.00 0.00 0.00 0.08 0.11 0.11 0.19 0.19 0.07 0.00 0.00 0.00 0.00 0.04 0.10 0.00 0.00 0.00 0.00 0.00 0.00 0.00
0.00 0.00 0.00 0.00 0.00 0.00 0.00 0.00 0.00 0.00 0.00 0.00 0.00 0.00 0.00 0.00 0.00 0.00 0.00 0.00 0.00 0.00 0.00 0.00 0.00 0.00 0.00 0.00 0.00 0.00 0.00 0.09 0.14 0.13 0.15 0.19 0.02 0.00 0.00 0.00 0.06 0.02 0.00 0.00 0.04 0.02 0.00 0.00 0.00
0.00 0.00 0.00 0.00 0.00 0.00 0.00 0.00 0.00 0.00 0.00 0.00 0.00 0.00 0.00 0.00 0.00 0.00 0.00 0.00 0.00 0.00 0.00 0.00 0.00 0.00 0.00 0.00 0.00 0.00 0.00 0.00 0.06 0.18 0.23 0.35 0.17 0.08 0.00 0.00 0.01 0.05 0.01 0.00 0.01 0.03 0.02 0.00 0.00
0.00 0.00 0.00 0.00 0.00 0.00 0.00 0.00 0.00 0.00 0.00 0.00 0.00 0.00 0.00 0.00 0.00 0.00 0.00 0.00 0.00 0.00 0.00 0.00 0.00 0.00 0.00 0.00 0.00 0.00 0.00 0.00 0.01 0.03 0.15 0.18 0.20 0.14 0.01 0.02 0.00 0.02 0.00 0.00 0.02 0.06 0.02 0.00 0.00
0.00 0.00 0.00 0.00 0.00 0.00 0.00 0.00 0.00 0.00 0.00 0.00 0.00 0.00 0.00 0.00 0.00 0.00 0.00 0.00 0.00 0.00 0.00 0.00 0.00 0.00 0.00 0.00 0.00 0.00 0.00 0.01 0.02 0.03 0.05 0.07 0.10 0.10 0.02 0.00 0.00 0.00 0.00 0.00 0.00 0.03 0.17 0.19 0.04
0.00 0.00 0.00 0.00 0.00 0.00 0.00 0.00 0.00 0.00 0.00 0.00 0.00 0.00 0.00 0.00 0.02 0.15 0.06 0.02 0.00 0.00 0.01 0.00 0.00 0.00 0.00 0.00 0.00 0.00 0.00 0.00 0.01 0.01 0.03 0.06 0.07 0.07 0.03 0.00 0.03 0.01 0.00 0.00 0.00 0.00 0.01 0.13 0.13
0.00 0.00 0.00 0.00 0.00 0.00 0.00 0.00 0.00 0.00 0.00 0.00 0.00 0.00 0.00 0.00 0.02 0.21 0.15 0.05 0.03 0.02 0.02 0.03 0.01 0.00 0.00 0.00 0.00 0.00 0.00 0.00 0.00 0.01 0.01 0.04 0.05 0.02 0.00 0.00 0.04 0.04 0.00 0.00 0.00 0.00 0.00 0.00 0.02
0.00 0.00 0.00 0.00 0.00 0.00 0.00 0.00 0.00 0.00 0.00 0.00 0.00 0.00 0.00 0.00 0.00 0.01 0.09 0.07 0.03 0.01 0.01 0.01 0.01 0.00 0.00 0.00 0.02 0.00 0.00 0.00 0.00 0.00 0.00 0.06 0.03 0.01 0.02 0.00 0.00 0.00 0.00 0.00 0.00 0.00 0.00 0.00 0.00
0.00 0.00 0.00 0.00 0.00 0.00 0.00 0.00 0.00 0.00 0.00 0.00 0.00 0.00 0.00 0.00 0.00 0.00 0.01 0.01 0.00 0.00 0.00 0.00 0.00 0.00 0.00 0.00 0.00 0.00 0.00 0.00 0.00 0.00 0.01 0.06 0.04 0.02 0.06 0.05 0.01 0.00 0.00 0.00 0.00 0.00 0.00 0.00 0.00
0.00 0.00 0.00 0.00 0.00 0.00 0.00 0.00 0.00 0.00 0.00 0.00 0.00 0.00 0.00 0.00 0.00 0.00 0.00 0.00 0.00 0.00 0.00 0.00 0.00 0.00 0.00 0.00 0.00 0.00 0.00 0.00 0.00 0.00 0.00 0.00 0.01 0.00 0.06 0.05 0.00 0.00 0.00 0.00 0.00 0.00 0.00 0.00 0.00
0.00 0.00 0.00 0.00 0.00 0.00 0.00 0.00 0.00 0.00 0.00 0.00 0.00 0.00 0.00 0.00 0.00 0.00 0.00 0.00 0.00 0.00 0.00 0.00 0.00 0.00 0.00 0.00 0.02 0.01 0.00 0.00 0.00 0.00 0.00 0.00 0.00 0.00 0.02 0.00 0.00 0.02 0.01 0.00 0.01 0.00 0.00 0.01 0.02
0.00 0.00 0.00 0.00 0.00 0.00 0.00 0.00 0.00 0.00 0.00 0.00 0.00 0.00 0.00 0.00 0.00 0.00 0.00 0.00 0.00 0.00 0.00 0.00 0.00 0.00 0.00 0.00 0.00 0.00 0.00 0.00 0.00 0.00 0.00 0.00 0.01 0.05 0.00 0.00 0.00 0.01 0.02 0.01 0.01 0.00 0.00 0.00 0.00
0.00 0.00 0.00 0.00 0.00 0.00 0.00 0.00 0.00 0.00 0.00 0.00 0.00 0.00 0.00 0.00 0.00 0.00 0.00 0.00 0.00 0.00 0.00 0.00 0.00 0.00 0.00 0.00 0.00 0.00 0.00 0.00 0.00 0.00 0.00 0.00 0.03 0.07 0.02 0.01 0.05 0.05 0.08 0.08 0.02 0.00 0.00 0.00 0.00
0.00 0.00 0.00 0.00 0.00 0.00 0.00 0.00 0.00 0.00 0.00 0.00 0.00 0.00 0.00 0.03 0.00 0.00 0.00 0.00 0.00 0.00 0.00 0.00 0.00 0.00 0.00 0.00 0.00 0.00 0.00 0.00 0.00 0.00 0.00 0.00 0.04 0.06 0.02 0.01 0.03 0.08 0.09 0.11 0.02 0.00 0.00 0.00 0.00
0.00 0.00 0.00 0.00 0.00 0.00 0.00 0.00 0.00 0.00 0.00 0.00 0.00 0.00 0.03 0.04 0.00 0.00 0.00 0.00 0.00 0.00 0.00 0.00 0.00 0.00 0.00 0.00 0.00 0.00 0.00 0.00 0.00 0.00 0.00 0.02 0.00 0.01 0.00 0.00 0.00 0.02 0.12 0.13 0.09 0.05 0.00 0.00 0.00
MSLP
1007.31 1007.54 1007.83 1007.63 1007.57 1007.07 1007.14 1007.28 1007.12 1006.68 1006.93 1007.48 1007.95 1008.45 1009.22 1010.07 1010.42 1011.58 1012.35 1012.56 1012.78 1013.19 1013.63 1013.99 1014.23 1014.35 1014.58 1014.75 1014.99 1015.13 1015.34 1015.61 1015.89 1016.09 1016.28 1016.56 1016.81 1016.93 1017.14 1017.41 1017.57 1017.52 1017.69 1017.82 1017.91 1018.02 1018.23 1018.47 1018.61
1007.30 1007.67 1007.56 1007.05 1007.07 1007.11 1007.43 1007.36 1007.07 1007.15 1007.49 1007.81 1008.35 1008.89 1009.54 1010.59 1011.12 1011.86 1012.40 1012.77 1012.85 1013.16 1013.64 1014.06 1014.56 1014.59 1014.85 1015.06 1015.26 1015.38 1015.59 1015.80 1016.05 1016.24 1016.43 1016.65 1016.86 1017.14 1017.24 1017.58 1017.78 1017.74 1017.85 1018.01 1018.13 1018.26 1018.43 1018.71 1018.83
1007.45 1007.25 1007.02 1006.82 1007.29 1007.32 1007.47 1007.57 1007.31 1007.45 1007.58 1007.70 1008.54 1009.40 1010.21 1011.29 1011.69 1011.97 1012.42 1012.96 1013.08 1013.45 1013.74 1014.38 1014.70 1014.91 1015.09 1015.31 1015.55 1015.70 1015.91 1016.17 1016.38 1016.57 1016.70 1016.89 1017.06 1017.19 1017.41 1017.75 1017.98 1018.04 1018.12 1018.27 1018.48 1018.54 1018.68 1018.89 1019.09
1006.95 1006.97 1007.16 1006.90 1007.06 1007.49 1007.33 1007.37 1007.23 1007.30 1007.59 1008.09 1008.57 1009.72 1011.15 1011.54 1011.92 1012.40 1012.97 1013.18 1013.37 1013.70 1013.96 1014.70 1014.98 1015.17 1015.44 1015.69 1015.88 1015.99 1016.20 1016.41 1016.61 1016.82 1017.07 1017.15 1017.29 1017.44 1017.56 1018.00 1018.09 1018.24 1018.35 1018.53 1018.75 1018.92 1019.03 1019.17 1019.29
1006.57 1006.26 1006.57 1006.89 1006.82 1007.05 1007.12 1007.07 1007.05 1007.28 1007.95 1008.47 1008.83 1010.48 1011.47 1012.10 1012.29 1012.80 1013.18 1013.44 1013.60 1013.92 1014.26 1014.83 1015.23 1015.43 1015.72 1015.99 1016.20 1016.27 1016.43 1016.66 1016.89 1017.00 1017.13 1017.25 1017.40 1017.61 1017.72 1018.04 1018.22 1018.46 1018.66 1018.80 1019.00 1019.14 1019.24 1019.40 1019.48
1006.14 1006.52 1006.38 1006.56 1006.68 1006.63 1006.64 1006.73 1006.94 1007.35 1008.13 1008.78 1009.50 1010.51 1012.10 1012.52 1012.72 1013.02 1013.38 1013.64 1013.79 1014.19 1014.57 1015.07 1015.57 1015.77 1015.96 1016.07 1016.30 1016.53 1016.67 1016.84 1017.08 1017.20 1017.49 1017.66 1017.81 1017.81 1018.07 1018.20 1018.27 1018.60 1018.85 1019.05 1019.22 1019.31 1019.40 1019.53 1019.62
1006.17 1006.40 1006.38 1006.43 1006.36 1006.22 1006.31 1006.58 1006.82 1007.33 1008.05 1008.57 1009.30 1010.65 1012.33 1012.75 1012.93 1013.28 1013.70 1014.01 1014.17 1014.42 1014.81 1015.14 1015.45 1015.88 1016.14 1016.20 1016.41 1016.63 1016.85 1017.07 1017.29 1017.52 1017.81 1017.86 1018.15 1018.28 1018.41 1018.49 1018.71 1018.87 1018.97 1019.16 1019.40 1019.51 1019.55 1019.66 1019.76
1006.45 1006.47 1006.10 1006.14 1006.13 1005.96 1006.26 1006.65 1007.11 1007.48 1008.23 1008.80 1009.35 1010.23 1011.83 1012.57 1013.16 1013.56 1013.99 1014.31 1014.59 1014.93 1015.08 1015.32 1015.55 1015.75 1016.07 1016.34 1016.57 1016.79 1017.07 1017.46 1017.68 1017.82 1018.07 1018.15 1018.67 1018.82 1018.72 1018.83 1018.92 1018.95 1019.10 1019.32 1019.46 1019.64 1019.67 1019.73 1019.79
1006.65 1006.14 1005.85 1005.73 1005.80 1005.62 1006.28 1006.66 1007.45 1007.94 1008.25 1008.94 1009.57 1010.10 1010.86 1012.61 1013.36 1013.80 1014.28 1014.69 1014.90 1015.06 1015.12 1015.23 1015.57 1015.85 1016.10 1016.40 1016.62 1017.10 1017.27 1017.69 1017.98 1018.33 1018.66 1018.69 1019.06 1019.19 1018.99 1019.06 1019.25 1019.29 1019.35 1019.32 1019.57 1019.69 1019.74 1019.78 1019.75
1006.38 1006.25 1005.49 1005.51 1005.42 1005.50 1006.23 1006.61 1007.25 1007.94 1008.46 1009.45 1010.25 1011.05 1011.90 1012.83 1013.36 1013.64 1014.03 1014.32 1014.52 1014.75 1015.00 1015.23 1015.35 1015.68 1016.01 1016.26 1016.64 1017.15 1017.50 1017.83 1017.94 1018.72 1019.32 1019.46 1019.34 1019.21 1019.16 1019.19 1019.29 1019.26 1019.34 1019.43 1019.58 1019.75 1019.85 1019.72 1019.49
1006.33 1005.87 1005.48 1005.16 1005.21 1005.41 1006.18 1006.70 1007.23 1007.65 1008.17 1008.86 1010.10 1011.14 1011.97 1012.65 1013.13 1013.34 1013.61 1013.93 1014.08 1014.44 1014.82 1015.10 1015.51 1015.80 1015.97 1016.14 1016.56 1016.97 1017.33 1017.65 1017.92 1018.37 1018.81 1019.11 1019.43 1019.58 1019.47 1019.39 1019.42 1019.43 1019.32 1019.30 1019.27 1019.49 1019.49 1019.60 1019.64
1005.90 1005.46 1005.24 1005.00 1005.13 1005.53 1006.09 1006.71 1007.22 1007.60 1007.94 1008.55 1010.06 1010.82 1011.58 1012.26 1012.62 1012.94 1013.31 1013.66 1014.10 1014.38 1014.69 1014.96 1015.29 1015.81 1016.07 1016.22 1016.65 1017.10 1017.83 1018.17 1018.31 1018.41 1018.54 1018.98 1019.08 1019.17 1019.33 1019.41 1019.45 1019.51 1019.50 1019.47 1019.52 1019.52 1019.67 1019.67 1019.60
1005.40 1004.76 1004.93 1004.84 1005.19 1005.58 1006.11 1006.67 1007.10 1007.98 1008.52 1009.20 1010.10 1010.98 1011.30 1011.78 1012.36 1012.82 1013.16 1013.53 1013.96 1014.19 1014.47 1014.81 1015.25 1015.70 1015.91 1016.38 1016.50 1017.04 1017.58 1018.35 1018.23 1018.39 1018.37 1018.65 1018.76 1019.04 1019.06 1019.02 1019.10 1019.44 1019.37 1019.28 1019.41 1019.49 1019.60 1019.58 1019.37
1004.78 1004.59 1004.70 1004.95 1005.18 1005.58 1005.87 1006.58 1007.05 1008.46 1008.97 1009.67 1009.96 1010.71 1011.13 1011.43 1011.84 1012.35 1012.67 1012.96 1013.32 1013.63 1013.87 1014.36 1014.92 1015.30 1015.67 1016.11 1016.49 1016.92 1017.35 1017.91 1018.05 1017.97 1018.01 1018.16 1018.36 1018.38 1018.59 1019.08 1019.11 1019.02 1019.08 1019.10 1019.26 1019.36 1019.42 1019.45 1019.34
1004.62 1004.46 1004.68 1005.04 1005.35 1005.43 1005.71 1006.50 1006.84 1007.93 1008.77 1009.40 1009.88 1010.15 1010.72 1011.21 1011.42 1011.47 1011.76 1012.23 1012.63 1013.05 1013.73 1014.11 1014.67 1014.94 1015.48 1015.90 1016.34 1016.82 1017.31 1017.63 1017.97 1017.92 1017.97 1017.96 1018.17 1018.15 1018.18 1018.73 1018.89 1018.58 1018.65 1018.94 1019.14 1019.30 1019.26 1019.11 1018.99
1004.62 1004.77 1004.59 1004.88 1005.28 1005.50 1005.67 1005.69 1006.76 1007.75 1008.28 1008.95 1009.53 1009.84 1010.11 1010.53 1010.90 1011.40 1011.78 1012.29 1012.64 1012.82 1013.32 1013.78 1014.14 1014.53 1015.08 1015.44 1015.79 1016.44 1016.58 1017.35 1017.57 1017.73 1017.86 1017.77 1017.77 1017.90 1018.10 1018.06 1018.39 1018.54 1018.56 1018.42 1018.50 1018.72 1018.80 1018.70 1018.65
1004.96 1004.74 1004.73 1004.72 1004.99 1005.34 1005.72 1005.49 1006.59 1007.49 1007.84 1008.39 1008.89 1009.17 1009.48 1010.03 1010.62 1010.92 1011.43 1012.03 1012.40 1012.68 1013.10 1013.54 1013.84 1014.05 1014.49 1014.90 1015.44 1015.48 1016.22 1016.66 1016.61 1016.98 1017.50 1017.44 1017.64 1017.59 1017.74 1017.92 1018.17 1018.46 1018.42 1018.10 1018.17 1018.19 1018.32 1018.23 1018.21
1005.16 1004.92 1004.97 1004.86 1004.97 1005.24 1005.55 1005.52 1006.51 1007.28 1007.53 1007.94 1008.41 1008.57 1008.90 1009.28 1009.70 1010.67 1011.43 1011.84 1012.17 1012.43 1012.84 1013.20 1013.41 1013.65 1014.10 1014.71 1015.32 1015.70 1015.83 1015.91 1015.85 1016.10 1016.54 1017.02 1017.26 1017.49 1017.70 1017.71 1017.65 1018.01 1017.76 1017.94 1017.86 1017.86 1017.84 1017.89 1017.81
1005.36 1005.19 1005.00 1004.76 1004.79 1005.14 1005.38 1005.69 1006.27 1006.76 1007.38 1007.79 1007.90 1008.12 1008.28 1008.58 1009.85 1010.68 1010.98 1011.30 1011.71 1012.09 1012.31 1012.61 1013.09 1013.29 1013.73 1014.15 1014.68 1015.01 1015.17 1015.55 1015.79 1015.68 1015.98 1016.41 1016.79 1016.91 1017.09 1017.24 1017.06 1017.50 1017.37 1017.49 1017.67 1017.55 1017.47 1017.29 1017.49
1005.21 1004.83 1004.61 1004.79 1004.85 1005.09 1005.46 1005.60 1005.99 1006.32 1006.72 1006.97 1007.34 1007.62 1007.75 1008.79 1009.99 1010.32 1010.64 1011.10 1010.99 1011.46 1011.78 1011.88 1012.26 1012.59 1013.05 1013.39 1013.85 1014.23 1014.60 1014.80 1014.95 1015.00 1015.39 1015.61 1015.99 1016.15 1016.28 1016.57 1016.73 1016.70 1017.00 1017.05 1017.44 1017.38 1017.28 1017.03 1016.91
1004.60 1004.28 1004.33 1004.48 1004.96 1005.40 1005.53 1005.63 1005.84 1006.27 1006.85 1007.00 1007.35 1007.48 1007.77 1009.02 1010.34 1011.83 1010.77 1010.83 1011.00 1010.85 1011.27 1011.67 1012.04 1012.26 1012.60 1012.93 1013.56 1013.93 1014.18 1014.44 1014.36 1014.52 1014.83 1014.98 1015.35 1015.46 1015.57 1015.65 1015.90 1016.23 1016.31 1016.42 1016.82 1016.86 1016.83 1016.78 1016.70
1004.03 1004.26 1004.26 1004.54 1004.58 1005.24 1006.02 1005.27 1005.41 1006.10 1006.44 1006.73 1006.90 1007.08 1007.33 1008.39 1010.12 1010.62 1010.09 1009.71 1010.43 1010.63 1011.24 1011.36 1011.46 1011.81 1012.08 1012.77 1013.22 1013.22 1013.21 1013.09 1013.00 1013.38 1013.81 1014.15 1014.36 1014.65 1014.81 1014.97 1015.25 1015.53 1015.99 1016.13 1016.26 1016.43 1016.37 1016.43 1016.08
1004.28 1004.45 1004.72 1004.78 1004.98 1005.34 1005.85 1005.75 1005.20 1006.11 1006.50 1006.93 1007.18 1007.13 1007.10 1007.90 1009.17 1009.74 1009.90 1009.90 1010.17 1010.45 1010.61 1011.02 1011.33 1011.55 1011.87 1012.14 1012.17 1012.68 1012.92 1013.01 1013.35 1013.76 1013.74 1013.79 1013.80 1013.85 1014.27 1014.30 1014.52 1014.86 1015.01 1015.15 1015.50 1015.77 1015.95 1015.88 1015.87
1004.41 1004.57 1005.03 1005.35 1005.19 1005.27 1006.25 1006.15 1005.20 1006.06 1006.95 1007.07 1007.39 1007.57 1007.77 1008.19 1008.86 1009.44 1009.97 1010.01 1009.87 1010.21 1010.64 1010.93 1011.15 1011.38 1011.62 1011.78 1012.08 1012.58 1012.88 1012.89 1013.22 1013.06 1013.21 1013.19 1013.16 1013.19 1013.52 1013.62 1013.79 1013.80 1014.17 1014.48 1014.83 1015.05 1015.35 1015.57 1015.56
1004.27 1004.33 1004.50 1004.81 1004.98 1005.58 1006.56 1006.46 1005.50 1006.28 1007.16 1007.40 1007.61 1007.76 1008.15 1008.58 1009.17 1009.67 1009.87 1009.91 1009.93 1009.92 1010.26 1010.69 1011.17 1011.36 1011.63 1011.75 1012.25 1012.64 1012.69 1012.83 1012.72 1012.68 1012.66 1012.86 1012.44 1012.46 1012.78 1013.02 1013.18 1013.26 1013.39 1013.89 1014.43 1014.61 1014.68 1014.93 1015.21
1004.24 1004.22 1004.36 1004.76 1005.34 1005.94 1006.73 1006.05 1005.71 1006.60 1007.23 1007.60 1008.04 1008.41 1008.62 1008.78 1008.97 1009.26 1009.44 1009.42 1009.50 1009.67 1010.20 1010.47 1010.95 1011.22 1011.49 1011.84 1012.12 1012.66 1012.69 1012.53 1012.51 1012.43 1012.40 1012.33 1011.69 1011.90 1011.98 1012.40 1012.76 1012.83 1013.03 1013.29 1013.79 1014.05 1014.04 1014.17 1014.36
1004.58 1004.75 1005.16 1005.26 1006.50 1006.12 1006.25 1006.26 1005.75 1006.21 1007.00 1007.52 1008.13 1008.72 1008.95 1009.16 1009.49 1009.25 1010.54 1009.49 1009.26 1009.56 1010.11 1010.33 1010.76 1011.20 1011.30 1011.78 1012.12 1012.18 1012.42 1012.47 1012.29 1012.30 1012.01 1011.40 1011.19 1011.35 1011.58 1011.78 1011.97 1012.08 1012.29 1012.78 1012.98 1013.53 1013.67 1013.80 1013.77
1004.37 1005.01 1005.32 1005.32 1005.65 1005.83 1006.17 1006.21 1005.65 1006.20 1006.55 1007.40 1008.14 1008.80 1009.28 1009.57 1009.85 1010.60 1011.39 1010.52 1009.56 1009.85 1010.44 1010.76 1010.80 1011.28 1011.54 1011.68 1011.89 1011.94 1012.02 1012.26 1012.01 1011.70 1011.27 1010.86 1010.58 1010.93 1011.14 1011.33 1011.33 1011.74 1011.69 1012.03 1012.40 1012.71 1012.97 1013.21 1013.27
1004.97 1004.89 1005.58 1005.79 1006.11 1005.67 1005.78 1005.69 1006.31 1006.55 1006.83 1007.37 1008.45 1009.19 1009.78 1010.15 1010.46 1010.83 1010.75 1010.45 1010.18 1010.53 1010.92 1010.87 1010.99 1011.37 1011.57 1011.44 1011.61 1011.70 1011.54 1011.35 1011.02 1010.59 1010.36 1010.25 1010.18 1010.36 1010.54 1010.86 1011.06 1011.40 1011.47 1011.71 1012.00 1012.27 1012.43 1012.67 1012.93
1004.88 1005.04 1005.10 1004.98 1006.20 1006.64 1006.53 1006.20 1006.91 1007.18 1007.38 1007.96 1008.80 1009.78 1010.24 1010.57 1010.79 1010.88 1010.70 1010.54 1010.79 1010.95 1011.04 1011.08 1011.18 1011.35 1011.45 1011.50 1011.41 1011.35 1011.14 1011.03 1010.81 1010.41 1010.20 1010.11 1009.94 1009.95 1010.19 1010.50 1010.80 1010.89 1011.08 1011.33 1011.73 1011.93 1011.77 1011.95 1011.91
Thickness
5839 5836 5833 5823 5804 5799 5777 5782 5797 5795 5793 5802 5803 5794 5786 5780 5774 5761 5780 5782 5781 5777 5773 5770 5769 5768 5767 5766 5764 5764 5763 5761 5757 5755 5754 5752 5750 5750 5749 5747 5746 5748 5746 5744 5744 5743 5742 5740 5739
5842 5836 5829 5818 5794 5775 5770 5790 5786 5795 5799 5805 5799 5792 5783 5768 5782 5776 5775 5780 5779 5776 5773 5770 5767 5767 5765 5763 5763 5762 5760 5759 5757 5755 5753 5752 5750 5748 5747 5745 5745 5746 5746 5743 5742 5740 5739 5737 5736
5843 5841 5823 5807 5786 5771 5769 5785 5792 5798 5805 5802 5790 5792 5782 5768 5778 5779 5783 5779 5778 5774 5772 5768 5766 5765 5763 5762 5761 5760 5757 5755 5753 5752 5751 5750 5748 5747 5745 5744 5743 5744 5743 5742 5739 5738 5736 5734 5733
5839 5832 5822 5798 5783 5787 5788 5792 5801 5800 5804 5804 5798 5778 5780 5785 5779 5781 5780 5778 5775 5772 5770 5765 5763 5762 5760 5758 5757 5757 5755 5753 5752 5750 5748 5747 5746 5745 5744 5741 5742 5741 5740 5739 5737 5735 5733 5732 5730
5844 5832 5802 5788 5789 5795 5800 5805 5809 5800 5797 5795 5798 5772 5770 5778 5783 5781 5779 5777 5773 5771 5767 5763 5761 5759 5757 5756 5754 5754 5753 5752 5750 5749 5748 5746 5745 5743 5742 5740 5741 5739 5737 5736 5734 5733 5732 5729 5729
5829 5823 5796 5783 5788 5802 5807 5813 5810 5803 5798 5795 5787 5780 5768 5780 5777 5779 5779 5775 5771 5768 5765 5760 5757 5756 5756 5756 5754 5752 5751 5750 5748 5747 5743 5742 5742 5741 5738 5738 5740 5738 5735 5733 5732 5732 5730 5727 5727
5822 5809 5794 5793 5792 5798 5806 5818 5808 5804 5798 5794 5799 5773 5771 5773 5779 5779 5776 5773 5770 5766 5763 5760 5758 5755 5754 5754 5753 5750 5748 5747 5746 5744 5740 5738 5739 5737 5736 5735 5735 5734 5734 5732 5731 5730 5728 5726 5725
5827 5815 5800 5800 5793 5797 5814 5814 5815 5807 5796 5809 5804 5776 5764 5776 5778 5777 5774 5770 5767 5763 5761 5759 5758 5756 5754 5752 5750 5748 5745 5743 5741 5740 5738 5737 5732 5733 5734 5733 5732 5732 5731 5730 5729 5728 5727 5726 5725
5835 5807 5796 5802 5800 5809 5819 5809 5814 5817 5805 5804 5801 5795 5794 5782 5778 5772 5766 5762 5762 5762 5762 5760 5757 5755 5753 5751 5748 5743 5741 5739 5737 5734 5732 5732 5730 5730 5732 5731 5730 5730 5729 5729 5727 5727 5727 5726 5726
5819 5800 5809 5824 5825 5817 5818 5815 5813 5805 5800 5791 5790 5792 5788 5781 5775 5770 5765 5761 5762 5762 5763 5762 5760 5757 5753 5750 5746 5741 5739 5737 5736 5729 5726 5726 5728 5729 5731 5730 5728 5730 5729 5728 5727 5726 5726 5727 5728
5820 5807 5823 5831 5835 5832 5820 5815 5820 5809 5797 5803 5791 5789 5786 5780 5776 5773 5771 5768 5767 5767 5766 5765 5760 5756 5754 5751 5746 5742 5739 5738 5736 5732 5729 5728 5727 5726 5726 5728 5728 5728 5729 5728 5728 5727 5727 5727 5728
5815 5829 5832 5837 5838 5831 5820 5824 5814 5817 5814 5820 5807 5801 5792 5782 5779 5777 5773 5772 5769 5768 5768 5767 5762 5757 5753 5750 5746 5740 5734 5733 5732 5732 5731 5729 5730 5728 5727 5727 5727 5727 5727 5727 5726 5726 5726 5726 5727
5824 5836 5839 5843 5839 5834 5832 5820 5819 5813 5820 5819 5810 5800 5795 5790 5785 5782 5779 5776 5774 5771 5770 5768 5764 5759 5755 5750 5746 5740 5733 5732 5733 5731 5732 5731 5731 5730 5729 5729 5728 5726 5727 5728 5726 5726 5726 5727 5729
5843 5841 5840 5840 5837 5835 5828 5823 5827 5815 5820 5812 5809 5802 5799 5795 5792 5788 5783 5778 5778 5778 5776 5774 5768 5762 5758 5753 5747 5741 5732 5736 5734 5735 5735 5734 5733 5732 5731 5728 5729 5729 5728 5728 5727 5727 5727 5727 5729
5846 5833 5838 5835 5835 5832 5838 5816 5819 5825 5822 5812 5809 5809 5804 5800 5799 5796 5795 5790 5788 5785 5779 5776 5770 5765 5760 5755 5748 5743 5739 5737 5736 5737 5737 5735 5733 5732 5733 5731 5729 5732 5731 5729 5727 5727 5728 5730 5731
5833 5830 5815 5832 5834 5837 5836 5814 5826 5829 5823 5815 5812 5811 5809 5806 5803 5801 5799 5794 5791 5788 5781 5779 5777 5772 5766 5759 5755 5749 5746 5740 5739 5737 5737 5737 5735 5734 5732 5733 5732 5731 5731 5731 5731 5731 5732 5733 5735
5823 5807 5813 5823 5839 5832 5829 5824 5829 5833 5829 5819 5818 5819 5814 5809 5806 5807 5805 5799 5795 5792 5787 5782 5781 5778 5774 5766 5761 5758 5753 5746 5745 5742 5738 5738 5736 5735 5733 5733 5732 5731 5731 5733 5733 5735 5735 5736 5737
5801 5808 5813 5813 5831 5832 5824 5829 5829 5830 5830 5825 5822 5823 5820 5816 5813 5809 5804 5802 5798 5797 5793 5789 5787 5785 5780 5774 5766 5759 5757 5756 5754 5749 5745 5740 5738 5735 5733 5732 5733 5732 5735 5735 5736 5737 5740 5739 5739
5816 5810 5809 5823 5837 5828 5824 5827 5827 5834 5829 5825 5825 5824 5825 5822 5817 5811 5811 5808 5800 5797 5796 5793 5789 5789 5786 5781 5774 5769 5765 5762 5758 5755 5750 5745 5742 5740 5737 5734 5735 5736 5739 5738 5737 5738 5739 5741 5742
5816 5814 5817 5826 5832 5830 5820 5823 5829 5833 5832 5835 5830 5828 5829 5822 5812 5811 5806 5803 5806 5800 5800 5801 5798 5796 5791 5788 5782 5778 5774 5771 5768 5764 5759 5755 5749 5746 5743 5740 5740 5744 5741 5740 5736 5738 5737 5741 5745
5820 5822 5820 5821 5824 5825 5820 5815 5819 5831 5830 5835 5835 5835 5833 5820 5806 5783 5786 5803 5807 5808 5804 5803 5801 5800 5795 5791 5784 5778 5776 5773 5771 5769 5767 5764 5758 5754 5750 5750 5747 5744 5745 5744 5741 5741 5740 5738 5743
5819 5832 5830 5823 5821 5800 5810 5795 5818 5821 5825 5828 5832 5835 5836 5826 5811 5803 5802 5812 5811 5813 5807 5806 5808 5805 5801 5792 5786 5782 5779 5777 5780 5776 5774 5770 5767 5763 5759 5755 5752 5750 5744 5744 5745 5744 5744 5743 5743
5822 5830 5822 5819 5811 5807 5801 5799 5823 5819 5817 5819 5824 5830 5836 5832 5819 5816 5815 5816 5818 5817 5814 5808 5809 5808 5803 5797 5794 5784 5778 5778 5777 5773 5772 5771 5772 5770 5764 5762 5758 5755 5753 5751 5748 5747 5745 5746 5745
5830 5823 5813 5808 5808 5790 5788 5794 5812 5812 5810 5818 5822 5825 5826 5826 5822 5819 5818 5819 5820 5820 5813 5812 5808 5805 5804 5800 5794 5785 5777 5776 5775 5777 5774 5772 5774 5776 5771 5767 5763 5760 5758 5755 5753 5752 5749 5745 5746
5826 5816 5788 5782 5786 5782 5789 5789 5812 5820 5816 5817 5817 5820 5821 5821 5816 5814 5814 5815 5816 5817 5816 5813 5808 5803 5800 5797 5790 5784 5782 5779 5778 5778 5778 5774 5775 5777 5775 5771 5766 5765 5762 5757 5753 5751 5751 5750 5746
5817 5818 5791 5758 5770 5781 5786 5788 5812 5819 5820 5820 5816 5815 5817 5816 5817 5816 5820 5822 5820 5819 5814 5813 5806 5800 5797 5793 5789 5782 5780 5781 5779 5779 5778 5777 5780 5777 5778 5774 5768 5766 5763 5760 5754 5751 5752 5752 5749
5807 5803 5810 5785 5770 5777 5785 5798 5822 5825 5818 5816 5810 5808 5807 5809 5807 5808 5807 5816 5821 5818 5813 5811 5804 5796 5795 5790 5785 5782 5779 5778 5778 5777 5780 5783 5782 5779 5777 5774 5771 5768 5765 5760 5757 5749 5748 5748 5746
5822 5815 5795 5792 5763 5761 5777 5779 5803 5808 5815 5813 5806 5804 5803 5805 5801 5795 5790 5800 5814 5811 5805 5803 5802 5793 5788 5785 5782 5778 5776 5772 5774 5777 5778 5781 5783 5777 5774 5771 5770 5764 5765 5761 5756 5750 5747 5744 5743
5806 5806 5792 5794 5781 5776 5771 5789 5809 5807 5813 5812 5803 5800 5795 5793 5791 5791 5794 5798 5803 5800 5796 5797 5794 5787 5783 5782 5778 5775 5773 5773 5774 5776 5776 5776 5777 5776 5772 5767 5765 5761 5758 5756 5752 5747 5745 5742 5739
5812 5805 5810 5795 5769 5768 5776 5791 5805 5805 5810 5808 5800 5792 5789 5790 5789 5789 5792 5795 5792 5788 5788 5787 5786 5781 5778 5777 5775 5771 5770 5768 5766 5767 5767 5768 5769 5770 5767 5762 5757 5756 5753 5750 5746 5742 5744 5741 5741